#timestamp,LO_Frequency,Hit 
1505811615.1,286046992.0,N
1505811635.9,286046993.2,N
1505811655.7,286046990.1,N
1505811675.5,286046992.0,N
1505811695.4,286046994.8,N
1505811715.2,286046997.9,N
1505811735.0,286046999.3,N
1505811735.9,286046999.3,N
1505811755.8,286046996.1,N
1505811775.6,286046994.0,N
1505811795.4,286046993.0,N
1505811815.3,286046989.8,N
1505811835.1,286046992.5,N
1505811836.0,286046992.5,N
1505811855.8,286046992.8,N
1505811875.7,286046991.7,N
1505811895.5,286046995.5,N
1505811915.3,286046997.0,N
1505811935.1,286046994.6,N
1505811955.9,286046992.2,N
1505811975.7,286046992.1,N
1505811995.5,286046995.2,N
1505812015.4,286046995.4,N
1505812035.2,286046995.0,N
1505812055.0,286046999.4,N
1505812055.9,286046999.4,N
1505812075.8,286046995.6,N
1505812095.6,286046995.0,N
1505812115.4,286046992.4,N
1505812135.3,286046990.3,P
1505812155.1,286046994.5,N
1505812175.8,286046997.4,N
1505812195.7,286046996.9,N
1505812215.5,286047002.1,N
1505812235.3,286047001.4,N
1505812255.2,286046998.3,N
1505812275.9,286046999.0,N
1505812295.7,286046996.4,N
1505812315.6,286046992.6,N
1505812335.4,286046991.0,N
1505812355.2,286046996.5,N
1505812375.0,286047002.1,N
1505812376.0,286047002.1,N
1505812395.8,286047001.0,N
1505812415.6,286046995.7,N
1505812435.4,286046992.1,N
1505812455.3,286046990.8,N
1505812475.1,286046988.5,N
1505812495.8,286046994.3,N
1505812515.7,286046992.4,N
1505812535.5,286046993.5,N
1505812555.3,286046993.4,N
1505812575.2,286046999.6,N
1505812595.9,286046994.3,N
1505812615.7,286046994.3,N
1505812635.6,286046994.2,N
1505812655.4,286046992.3,N
1505812675.2,286046991.2,N
1505812695.0,286046991.7,N
1505812696.0,286046991.7,N
1505812715.8,286046997.7,N
1505812735.6,286046997.6,N
1505812755.4,286046997.0,N
1505812775.3,286046998.7,N
1505812795.1,286046998.9,N
1505812815.8,286046999.6,N
1505812835.7,286046997.5,N
1505812855.5,286046990.1,N
1505812875.3,286046994.1,N
1505812895.2,286046990.7,N
1505812915.9,286046990.2,N
1505812935.7,286046993.2,N
1505812955.6,286046995.5,N
1505812975.4,286046993.7,N
1505812995.2,286046997.8,N
1505813015.1,286047000.7,N
1505813016.0,286047000.7,N
1505813035.8,286046995.7,N
1505813055.6,286046993.5,N
1505813075.4,286046996.9,N
1505813095.3,286046995.4,N
1505813115.1,286046995.1,N
1505813135.8,286046995.1,N
1505813155.7,286046993.0,N
1505813175.5,286046991.2,N
1505813195.3,286046993.6,N
1505813215.2,286046994.2,N
1505813235.9,286046991.4,N
1505813255.7,286046986.9,P
1505813275.6,286046990.3,N
1505813295.4,286046993.0,N
1505813315.2,286046990.6,P
1505813335.1,286047001.6,P
1505813336.0,286047001.6,N
1505813355.8,286046999.7,N
1505813375.6,286047002.4,N
1505813395.5,286047002.5,N
1505813415.3,286047000.2,N
1505813435.1,286047001.2,N
1505813455.9,286047001.1,N
1505813475.7,286047003.6,N
1505813495.5,286046999.8,N
1505813515.4,286046998.2,N
1505813535.2,286046998.9,N
1505813555.0,286046995.0,N
1505813555.9,286046995.0,N
1505813575.8,286046994.9,N
1505813595.6,286046994.6,N
1505813615.4,286046990.3,N
1505813635.3,286046989.0,N
1505813655.1,286046991.7,N
1505813656.0,286046991.7,N
1505813675.8,286046996.0,N
1505813695.6,286046997.6,N
1505813715.5,286046997.1,N
1505813735.3,286046997.5,N
1505813755.1,286046996.2,N
1505813775.9,286046993.5,N
1505813795.7,286046995.8,N
1505813815.5,286046997.7,N
1505813835.8,286046996.1,N
1505813855.6,286046997.6,N
1505813875.4,286046996.9,N
1505813895.3,286046997.1,N
1505813915.1,286046997.8,N
1505813916.0,286046997.8,N
1505813935.8,286046995.3,N
1505813955.7,286046996.7,N
1505813975.5,286046995.3,N
1505813995.4,286046992.2,N
1505814015.2,286046992.6,N
1505814035.0,286046992.9,N
1505814035.9,286046992.9,N
1505814055.8,286046993.6,N
1505814075.6,286046993.6,N
1505814095.4,286046992.5,P
1505814115.3,286047001.1,N
1505814135.1,286047000.8,N
1505814136.0,286047000.8,N
1505814155.8,286046995.3,N
1505814175.7,286046996.3,N
1505814195.5,286046991.9,N
1505814215.3,286046990.3,N
1505814235.2,286046990.1,N
1505814255.9,286046991.3,N
1505814275.7,286046988.6,N
1505814295.6,286046987.0,P
1505814315.4,286046994.5,N
1505814335.2,286046992.5,N
1505814355.0,286046995.4,N
1505814356.0,286046995.4,N
1505814375.8,286046996.8,N
1505814395.6,286046996.5,N
1505814415.4,286047000.2,N
1505814435.3,286046999.8,N
1505814455.1,286047002.7,N
1505814475.8,286047007.5,N
1505814495.7,286047004.8,N
1505814515.5,286047001.1,N
1505814535.3,286046998.2,N
1505814555.2,286047000.0,N
1505814575.9,286047002.0,N
1505814595.7,286047003.2,N
1505814615.6,286047002.3,N
1505814635.4,286047000.8,N
1505814655.2,286047000.1,N
1505814675.0,286047001.7,N
1505814676.0,286047001.7,N
1505814695.8,286047002.8,N
1505814715.6,286047001.7,N
1505814735.4,286047003.9,N
1505814755.3,286047005.4,N
1505814775.1,286047003.0,N
1505814795.8,286046999.8,N
1505814815.7,286046997.2,N
1505814835.5,286046995.9,N
1505814855.3,286046995.6,N
1505814875.2,286046999.5,N
1505814895.9,286047000.1,N
1505814915.7,286047001.1,N
1505814935.6,286046997.6,N
1505814955.4,286046994.2,N
1505814975.2,286046995.0,N
1505814995.0,286046997.9,N
1505814996.0,286046997.9,N
1505815015.8,286046999.3,N
1505815035.6,286047004.3,N
1505815055.5,286047014.6,P
1505815075.3,286047011.1,N
1505815095.1,286047007.5,N
1505815115.9,286047007.6,N
1505815135.7,286047006.0,N
1505815155.5,286047000.5,N
1505815175.3,286047000.4,N
1505815195.2,286046997.1,N
